BAW29 EGKK-EDDF

Flight info

Callsign BAW29
Flight time 1h 6m
Altitude 35000
Route DVR UL9 KONAN UL607 KOK DCT REMBA UL607 SPI T180 NIVNU T847 IMCOM IMCOM1B
Aircraft A20N/M-SDE2E3FGHIRWXY/LB1

Departure

Time 2026-05-04 14:45
Airport London Gatwick Airport (EGKK)

Arrival

Time 2026-05-04 15:52
Airport Frankfurt Main Airport (EDDF)
Time Latitude Longitude Altitude Speed Heading
2026-05-04 14:22 51.15748 -0.16848 209 ft 0 kts
2026-05-04 14:29 51.15739 -0.16851 210 ft 3 kts
2026-05-04 14:30 51.15720 -0.16855 217 ft 3 kts
2026-05-04 14:30 51.15701 -0.16860 212 ft 3 kts
2026-05-04 14:30 51.15670 -0.16848 215 ft 2 kts 277°
2026-05-04 14:31 51.15670 -0.16846 214 ft 0 kts 277°
2026-05-04 14:32 51.15669 -0.16840 213 ft 0 kts 262°
2026-05-04 14:33 51.15669 -0.16846 214 ft 4 kts 260°
2026-05-04 14:33 51.15667 -0.16862 215 ft 0 kts 260°
2026-05-04 14:35 51.15665 -0.16878 215 ft 7 kts 260°
2026-05-04 14:35 51.15656 -0.16951 212 ft 7 kts 257°
2026-05-04 14:35 51.15644 -0.17038 210 ft 8 kts 257°
2026-05-04 14:36 51.15624 -0.17182 211 ft 17 kts 258°
2026-05-04 14:36 51.15596 -0.17360 210 ft 16 kts 255°
2026-05-04 14:36 51.15542 -0.17500 208 ft 14 kts 243°
2026-05-04 14:36 51.15521 -0.17641 208 ft 13 kts 257°
2026-05-04 14:37 51.15501 -0.17782 214 ft 13 kts 258°
2026-05-04 14:37 51.15476 -0.17956 210 ft 19 kts 256°
2026-05-04 14:37 51.15449 -0.18170 215 ft 20 kts 259°
2026-05-04 14:37 51.15362 -0.18268 208 ft 17 kts 171°
2026-05-04 14:38 51.15246 -0.18228 217 ft 18 kts 168°
2026-05-04 14:38 51.15181 -0.18262 211 ft 7 kts 273°
2026-05-04 14:38 51.15176 -0.18400 214 ft 14 kts 255°
2026-05-04 14:38 51.15153 -0.18544 210 ft 13 kts 259°
2026-05-04 14:39 51.15134 -0.18701 208 ft 16 kts 257°
2026-05-04 14:39 51.15110 -0.18877 214 ft 16 kts 257°
2026-05-04 14:39 51.15086 -0.19049 218 ft 16 kts 257°
2026-05-04 14:40 51.15039 -0.19387 217 ft 15 kts 257°
2026-05-04 14:40 51.15016 -0.19553 214 ft 15 kts 257°
2026-05-04 14:40 51.14993 -0.19719 208 ft 15 kts 257°
2026-05-04 14:40 51.14970 -0.19885 216 ft 15 kts 257°
2026-05-04 14:41 51.14947 -0.20053 210 ft 16 kts 257°
2026-05-04 14:41 51.14921 -0.20246 208 ft 21 kts 258°
2026-05-04 14:41 51.14870 -0.20631 216 ft 21 kts 256°
2026-05-04 14:42 51.14811 -0.21044 217 ft 11 kts 257°
2026-05-04 14:42 51.14803 -0.21100 211 ft 0 kts 258°
2026-05-04 14:42 51.14794 -0.21146 214 ft 9 kts 249°
2026-05-04 14:43 51.14777 -0.21238 208 ft 9 kts 257°
2026-05-04 14:43 51.14763 -0.21330 211 ft 8 kts 255°
2026-05-04 14:43 51.14726 -0.21397 212 ft 8 kts 191°
2026-05-04 14:43 51.14666 -0.21357 216 ft 8 kts 128°
2026-05-04 14:44 51.14606 -0.21318 213 ft 14 kts 164°
2026-05-04 14:44 51.14528 -0.21232 208 ft 14 kts 131°
2026-05-04 14:44 51.14529 -0.21115 213 ft 10 kts 78°
2026-05-04 14:44 51.14542 -0.21017 218 ft 12 kts 76°
2026-05-04 14:45 51.14600 -0.20589 219 ft 72 kts 77°
2026-05-04 14:45 51.14762 -0.19437 213 ft 136 kts 77°
2026-05-04 14:45 51.14993 -0.17761 434 ft 159 kts 77°
2026-05-04 14:45 51.15222 -0.16068 1107 ft 156 kts 77°
2026-05-04 14:46 51.15469 -0.14371 1769 ft 162 kts 76°
2026-05-04 14:46 51.15765 -0.12572 2455 ft 177 kts 76°
2026-05-04 14:46 51.16056 -0.10470 2776 ft 213 kts 78°
2026-05-04 14:46 51.16377 -0.07983 3193 ft 244 kts 78°
2026-05-04 14:47 51.16714 -0.05240 3902 ft 258 kts 83°
2026-05-04 14:47 51.16827 -0.02349 4822 ft 264 kts 88°
2026-05-04 14:47 51.16864 0.00602 5794 ft 269 kts 89°
2026-05-04 14:47 51.16872 0.03598 6738 ft 273 kts 90°
2026-05-04 14:48 51.16869 0.06644 7658 ft 277 kts 90°
2026-05-04 14:48 51.16858 0.09731 8549 ft 281 kts 90°
2026-05-04 14:48 51.16844 0.12859 9423 ft 285 kts 90°
2026-05-04 14:48 51.16827 0.16047 10265 ft 291 kts 90°
2026-05-04 14:49 51.16809 0.19378 10706 ft 312 kts 90°
2026-05-04 14:49 51.16787 0.22962 11060 ft 335 kts 90°
2026-05-04 14:49 51.16763 0.26764 11529 ft 351 kts 90°
2026-05-04 14:49 51.16736 0.30703 12252 ft 359 kts 90°
2026-05-04 14:50 51.16707 0.34713 13049 ft 364 kts 90°
2026-05-04 14:50 51.16677 0.38770 13855 ft 369 kts 91°
2026-05-04 14:50 51.16645 0.42867 14648 ft 373 kts 91°
2026-05-04 14:50 51.16611 0.47047 15310 ft 382 kts 91°
2026-05-04 14:51 51.16588 0.51354 15627 ft 398 kts 90°
2026-05-04 14:51 51.16579 0.55868 15923 ft 414 kts 90°
2026-05-04 14:51 51.16578 0.60602 16244 ft 428 kts 90°
2026-05-04 14:51 51.16577 0.65318 16799 ft 434 kts 90°
2026-05-04 14:52 51.16574 0.70202 17423 ft 438 kts 90°
2026-05-04 14:52 51.16568 0.75079 18006 ft 442 kts 90°
2026-05-04 14:52 51.16557 0.79983 18650 ft 444 kts 90°
2026-05-04 14:52 51.16544 0.84902 19372 ft 444 kts 90°
2026-05-04 14:53 51.16527 0.89817 20107 ft 443 kts 90°
2026-05-04 14:53 51.16508 0.94704 20858 ft 441 kts 90°
2026-05-04 14:53 51.16487 0.99591 21575 ft 440 kts 90°
2026-05-04 14:53 51.16464 1.04462 22263 ft 440 kts 90°
2026-05-04 14:54 51.16440 1.09336 22957 ft 439 kts 90°
2026-05-04 14:54 51.16413 1.14185 23649 ft 437 kts 90°
2026-05-04 14:54 51.16384 1.19019 24308 ft 436 kts 90°
2026-05-04 14:54 51.16354 1.23779 24950 ft 435 kts 90°
2026-05-04 14:55 51.16322 1.28652 25575 ft 434 kts 90°
2026-05-04 14:55 51.16288 1.33454 26165 ft 433 kts 90°
2026-05-04 14:55 51.16202 1.38236 26732 ft 432 kts 92°
2026-05-04 14:55 51.16020 1.43011 27289 ft 431 kts 94°
2026-05-04 14:56 51.15788 1.47763 27823 ft 430 kts 95°
2026-05-04 14:56 51.15537 1.52498 28332 ft 429 kts 95°
2026-05-04 14:56 51.15283 1.57215 28818 ft 428 kts 95°
2026-05-04 14:56 51.15033 1.61933 29289 ft 427 kts 95°
2026-05-04 14:57 51.14788 1.66642 29752 ft 426 kts 95°
2026-05-04 14:57 51.14549 1.71341 30184 ft 426 kts 95°
2026-05-04 14:57 51.14311 1.76040 30604 ft 425 kts 95°
2026-05-04 14:57 51.14073 1.80734 31018 ft 424 kts 95°
2026-05-04 14:58 51.13837 1.85390 31410 ft 424 kts 95°
2026-05-04 14:58 51.13597 1.90079 31798 ft 423 kts 95°
2026-05-04 14:58 51.13356 1.94738 32163 ft 422 kts 95°
2026-05-04 14:58 51.13114 1.99386 32515 ft 422 kts 95°
2026-05-04 14:59 51.12869 2.04052 32787 ft 424 kts 95°
2026-05-04 14:59 51.12623 2.08682 32919 ft 429 kts 95°
2026-05-04 14:59 51.12109 2.18259 33130 ft 439 kts 95°
2026-05-04 15:00 51.11845 2.23123 33233 ft 445 kts 95°
2026-05-04 15:00 51.11575 2.28064 33344 ft 450 kts 95°
2026-05-04 15:00 51.11300 2.33057 33450 ft 455 kts 95°
2026-05-04 15:01 51.10731 2.43255 33658 ft 465 kts 95°
2026-05-04 15:01 51.10432 2.48555 33813 ft 469 kts 95°
2026-05-04 15:01 51.10138 2.53732 34072 ft 469 kts 95°
2026-05-04 15:01 51.09842 2.58886 34366 ft 469 kts 95°
2026-05-04 15:02 51.09519 2.64042 34661 ft 469 kts 98°
2026-05-04 15:02 51.08923 2.69134 34958 ft 468 kts 103°
2026-05-04 15:02 51.08111 2.74125 35071 ft 467 kts 106°
2026-05-04 15:02 51.07188 2.79077 35008 ft 466 kts 107°
2026-05-04 15:03 51.05260 2.88935 34997 ft 467 kts 107°
2026-05-04 15:03 51.03377 2.98818 35003 ft 467 kts 107°
2026-05-04 15:04 51.01540 3.08722 35005 ft 467 kts 106°
2026-05-04 15:04 50.99713 3.18640 35000 ft 467 kts 106°
2026-05-04 15:05 50.97882 3.28531 35003 ft 467 kts 106°
2026-05-04 15:05 50.96037 3.38422 35003 ft 467 kts 107°
2026-05-04 15:06 50.94185 3.48298 34993 ft 467 kts 107°
2026-05-04 15:07 50.91388 3.63104 34995 ft 467 kts 107°
2026-05-04 15:07 50.89513 3.72967 35001 ft 467 kts 107°
2026-05-04 15:08 50.87630 3.82819 34997 ft 468 kts 107°
2026-05-04 15:08 50.85740 3.92663 34996 ft 468 kts 107°
2026-05-04 15:09 50.83839 4.02506 35003 ft 468 kts 107°
2026-05-04 15:09 50.81930 4.12339 34998 ft 468 kts 107°
2026-05-04 15:10 50.79051 4.27080 34997 ft 468 kts 107°
2026-05-04 15:11 50.76157 4.41781 35002 ft 468 kts 107°
2026-05-04 15:11 50.74212 4.51602 35005 ft 468 kts 107°
2026-05-04 15:12 50.72261 4.61398 34996 ft 468 kts 107°
2026-05-04 15:12 50.70304 4.71182 34998 ft 468 kts 108°
2026-05-04 15:13 50.68336 4.80968 35005 ft 468 kts 108°
2026-05-04 15:13 50.66361 4.90736 34999 ft 468 kts 108°
2026-05-04 15:14 50.64703 4.98868 35002 ft 468 kts 108°
2026-05-04 15:14 50.62698 5.08616 35003 ft 468 kts 108°
2026-05-04 15:15 50.60684 5.18365 35002 ft 468 kts 108°
2026-05-04 15:15 50.58662 5.28105 35007 ft 468 kts 108°
2026-05-04 15:16 50.55614 5.42707 34999 ft 468 kts 108°
2026-05-04 15:17 50.52544 5.57304 34994 ft 469 kts 108°
2026-05-04 15:17 50.49628 5.71962 35000 ft 469 kts 106°
2026-05-04 15:18 50.47816 5.81797 34998 ft 469 kts 106°
2026-05-04 15:19 50.45066 5.96558 35003 ft 471 kts 107°
2026-05-04 15:19 50.42267 6.11317 34999 ft 470 kts 107°
2026-05-04 15:20 50.40385 6.21153 35000 ft 471 kts 107°
2026-05-04 15:20 50.38494 6.30994 34996 ft 471 kts 107°
2026-05-04 15:21 50.36619 6.40836 35001 ft 471 kts 104°
2026-05-04 15:22 50.35306 6.56060 34995 ft 471 kts 94°
2026-05-04 15:22 50.34515 6.71388 35001 ft 471 kts 95°
2026-05-04 15:23 50.33907 6.81582 35002 ft 470 kts 95°
2026-05-04 15:23 50.32711 6.91629 35002 ft 470 kts 104°
2026-05-04 15:24 50.29330 7.11403 34994 ft 470 kts 105°
2026-05-04 15:25 50.28490 7.16290 34622 ft 462 kts 105°
2026-05-04 15:25 50.27656 7.21128 33865 ft 458 kts 105°
2026-05-04 15:25 50.26829 7.25922 32956 ft 457 kts 105°
2026-05-04 15:26 50.25166 7.35523 30905 ft 458 kts 105°
2026-05-04 15:26 50.24328 7.40337 29784 ft 460 kts 105°
2026-05-04 15:26 50.22639 7.50014 27365 ft 465 kts 105°
2026-05-04 15:27 50.21849 7.54923 26044 ft 467 kts 101°
2026-05-04 15:27 50.19529 7.64366 23293 ft 470 kts 124°
2026-05-04 15:28 50.15465 7.72199 20972 ft 459 kts 133°
2026-05-04 15:28 50.13179 7.75612 19846 ft 451 kts 137°
2026-05-04 15:28 50.08565 7.82038 17589 ft 438 kts 141°
2026-05-04 15:29 50.06185 7.84923 16480 ft 431 kts 143°
2026-05-04 15:30 49.96876 7.95789 12103 ft 403 kts 143°
2026-05-04 15:30 49.90621 8.03072 10986 ft 336 kts 143°
2026-05-04 15:31 49.87174 8.07089 10986 ft 286 kts 143°
2026-05-04 15:31 49.85663 8.08900 10979 ft 265 kts 137°
2026-05-04 15:32 49.84946 8.16406 11003 ft 251 kts 74°
2026-05-04 15:32 49.85887 8.21426 11000 ft 228 kts 73°
2026-05-04 15:33 49.86779 8.26106 11000 ft 226 kts 73°
2026-05-04 15:34 49.88106 8.33082 11000 ft 226 kts 73°
2026-05-04 15:34 49.88552 8.35425 11000 ft 226 kts 73°
2026-05-04 15:34 49.89439 8.40093 11000 ft 226 kts 73°
2026-05-04 15:35 49.90326 8.44768 10999 ft 226 kts 73°
2026-05-04 15:35 49.90768 8.47100 11001 ft 226 kts 73°
2026-05-04 15:35 49.91211 8.49437 11000 ft 226 kts 73°
2026-05-04 15:36 49.92096 8.54111 11000 ft 226 kts 73°
2026-05-04 15:36 49.92539 8.56449 11000 ft 226 kts 73°
2026-05-04 15:36 49.92986 8.58813 11000 ft 226 kts 73°
2026-05-04 15:37 49.93422 8.61119 11000 ft 226 kts 73°
2026-05-04 15:37 49.93867 8.63476 10999 ft 226 kts 73°
2026-05-04 15:37 49.94320 8.65872 11017 ft 241 kts 73°
2026-05-04 15:37 49.94810 8.68464 11011 ft 257 kts 73°
2026-05-04 15:38 49.95316 8.71143 11003 ft 260 kts 73°
2026-05-04 15:38 49.95825 8.73838 11001 ft 261 kts 73°
2026-05-04 15:38 49.96336 8.76545 10782 ft 260 kts 73°
2026-05-04 15:38 49.96838 8.79207 10302 ft 259 kts 73°
2026-05-04 15:39 49.97342 8.81879 9839 ft 257 kts 73°
2026-05-04 15:39 49.97842 8.84537 9363 ft 255 kts 73°
2026-05-04 15:39 49.98835 8.89815 8997 ft 255 kts 73°
2026-05-04 15:40 49.99339 8.92492 8998 ft 254 kts 73°
2026-05-04 15:40 49.99833 8.95121 9000 ft 254 kts 73°
2026-05-04 15:40 50.00321 8.97717 8675 ft 254 kts 73°
2026-05-04 15:40 50.00820 9.00379 8200 ft 252 kts 73°
2026-05-04 15:41 50.01307 9.02973 7740 ft 250 kts 73°
2026-05-04 15:41 50.01788 9.05550 7291 ft 248 kts 73°
2026-05-04 15:41 50.02268 9.08117 6829 ft 246 kts 73°
2026-05-04 15:41 50.02745 9.10664 6361 ft 244 kts 73°
2026-05-04 15:42 50.03394 9.13078 5890 ft 243 kts 53°
2026-05-04 15:42 50.04686 9.14702 5394 ft 240 kts 22°
2026-05-04 15:42 50.06318 9.15055 4933 ft 238 kts 353°
2026-05-04 15:42 50.07948 9.14530 4480 ft 236 kts 345°
2026-05-04 15:43 50.09507 9.13860 4132 ft 234 kts 344°
2026-05-04 15:43 50.11048 9.13008 4024 ft 233 kts 328°
2026-05-04 15:43 50.12135 9.11207 4026 ft 230 kts 297°
2026-05-04 15:43 50.12722 9.08959 4000 ft 214 kts 284°
2026-05-04 15:44 50.12873 9.06794 4009 ft 191 kts 266°
2026-05-04 15:44 50.12696 9.04861 4003 ft 169 kts 258°
2026-05-04 15:44 50.12450 9.03165 3996 ft 155 kts 256°
2026-05-04 15:44 50.12173 9.01493 4050 ft 164 kts 255°
2026-05-04 15:45 50.11865 8.99752 4035 ft 168 kts 254°
2026-05-04 15:45 50.11545 8.97998 4029 ft 169 kts 254°
2026-05-04 15:45 50.11217 8.96243 4028 ft 169 kts 254°
2026-05-04 15:45 50.10886 8.94488 4028 ft 169 kts 253°
2026-05-04 15:46 50.10554 8.92736 4026 ft 169 kts 253°
2026-05-04 15:46 50.10221 8.90985 4035 ft 168 kts 253°
2026-05-04 15:46 50.09889 8.89237 4034 ft 168 kts 253°
2026-05-04 15:46 50.09593 8.87476 3971 ft 168 kts 258°
2026-05-04 15:47 50.09418 8.85678 3797 ft 168 kts 263°
2026-05-04 15:47 50.09264 8.83877 3612 ft 168 kts 262°
2026-05-04 15:47 50.09101 8.82079 3408 ft 167 kts 262°
2026-05-04 15:47 50.08926 8.80291 3202 ft 167 kts 262°
2026-05-04 15:48 50.08678 8.78562 2940 ft 161 kts 252°
2026-05-04 15:48 50.08320 8.76935 2656 ft 157 kts 251°
2026-05-04 15:48 50.07580 8.73834 2109 ft 144 kts 248°
2026-05-04 15:49 50.07221 8.72429 1905 ft 135 kts 249°
2026-05-04 15:49 50.06895 8.71100 1724 ft 129 kts 249°
2026-05-04 15:49 50.06566 8.69787 1572 ft 130 kts 251°
2026-05-04 15:49 50.06279 8.68480 1447 ft 125 kts 252°
2026-05-04 15:50 50.06096 8.67621 1386 ft 123 kts 250°
2026-05-04 15:50 50.05800 8.66385 1313 ft 121 kts 249°
2026-05-04 15:50 50.05490 8.65057 1260 ft 132 kts 249°
2026-05-04 15:50 50.05185 8.63717 1085 ft 130 kts 251°
2026-05-04 15:51 50.04902 8.62395 885 ft 130 kts 252°
2026-05-04 15:51 50.04577 8.61046 698 ft 136 kts 249°
2026-05-04 15:51 50.04249 8.59663 532 ft 136 kts 249°
2026-05-04 15:51 50.03920 8.58290 395 ft 131 kts 249°
2026-05-04 15:52 50.03632 8.57085 363 ft 90 kts 249°
2026-05-04 15:52 50.03498 8.56526 365 ft 41 kts 249°
2026-05-04 15:52 50.03432 8.56110 366 ft 36 kts 279°
2026-05-04 15:52 50.03466 8.55788 359 ft 24 kts 280°
2026-05-04 15:53 50.03488 8.55595 354 ft 14 kts 279°
2026-05-04 15:53 50.03552 8.55514 358 ft 12 kts
2026-05-04 15:53 50.03627 8.55530 360 ft 11 kts
2026-05-04 15:53 50.03726 8.55547 360 ft 15 kts
2026-05-04 15:54 50.03827 8.55523 364 ft 13 kts 341°
2026-05-04 15:54 50.03876 8.55496 363 ft 5 kts 341°
2026-05-04 15:54 50.03908 8.55481 367 ft 8 kts 344°
2026-05-04 15:54 50.03924 8.55476 367 ft 1 kts 359°
2026-05-04 15:55 50.03956 8.55571 364 ft 13 kts 63°
2026-05-04 15:55 50.03995 8.55716 356 ft 15 kts 68°
2026-05-04 15:55 50.04032 8.55876 361 ft 16 kts 72°
2026-05-04 15:55 50.04072 8.56059 356 ft 19 kts 71°
2026-05-04 15:56 50.04121 8.56245 355 ft 19 kts 73°
2026-05-04 15:56 50.04166 8.56444 349 ft 20 kts 71°
2026-05-04 15:56 50.04222 8.56617 361 ft 16 kts 32°
2026-05-04 15:56 50.04247 8.56626 358 ft 2 kts
2026-05-04 15:57 50.04266 8.56623 350 ft 0 kts 354°
2026-05-04 15:57 50.04264 8.56624 350 ft 1 kts 354°
2026-05-04 15:57 50.04275 8.56620 354 ft 12 kts 341°
2026-05-04 15:57 50.04319 8.56592 361 ft 3 kts 339°
2026-05-04 15:58 50.04341 8.56580 353 ft 5 kts 340°
2026-05-04 15:58 50.04384 8.56583 354 ft 5 kts 25°
2026-05-04 15:58 50.04409 8.56651 358 ft 9 kts 70°
2026-05-04 15:58 50.04432 8.56745 359 ft 10 kts 69°
2026-05-04 15:59 50.04458 8.56857 358 ft 12 kts 70°
2026-05-04 15:59 50.04477 8.56929 357 ft 0 kts 68°
2026-05-04 15:59 50.04488 8.56974 358 ft 12 kts 70°
2026-05-04 15:59 50.04515 8.57094 355 ft 12 kts 71°
2026-05-04 16:00 50.04545 8.57224 357 ft 13 kts 71°
2026-05-04 16:00 50.04576 8.57358 355 ft 13 kts 68°
2026-05-04 16:00 50.04609 8.57482 357 ft 12 kts 68°
2026-05-04 16:00 50.04639 8.57612 352 ft 13 kts 70°
2026-05-04 16:01 50.04671 8.57748 355 ft 14 kts 69°
2026-05-04 16:01 50.04703 8.57890 355 ft 14 kts 79°
2026-05-04 16:01 50.04657 8.57994 356 ft 14 kts 151°
2026-05-04 16:01 50.04651 8.58146 350 ft 23 kts 69°
2026-05-04 16:02 50.04742 8.58542 335 ft 69 kts 68°
2026-05-04 16:02 50.04768 8.58937 334 ft 4 kts 75°
2026-05-04 16:02 50.04803 8.58928 335 ft 7 kts 343°
2026-05-04 16:03 50.04837 8.58909 337 ft 2 kts 339°
2026-05-04 16:03 50.04845 8.58905 340 ft 0 kts 340°
2026-05-04 16:03 50.04847 8.58903 349 ft 0 kts 340°